Flag for Brazil Weather past 2 weeks in Pirassununga, São Paulo, Brazil

Now
66 °F

Fog.


Feels Like: 66 °F
Forecast: 59 / 85 °F
Wind: 2 mph from Northeast

Location: Pirassununga Airport


UV Index: 5 (Moderate)

Visibility: 2 mi


Pressure: 30.04 "Hg

Humidity: 94%

Dew point: 64 °F

Location of PirassunungaLocation

Historic Weather in Pirassununga

°F

Pirassununga temperature yesterday

Maximum temperature yesterday: 84 °F (at 3:00 PM)
Minimum temperature yesterday: 61 °F (at 6:00 AM)
Average temperature yesterday: 73 °F

Past Weeks' High & Low Weather Summary

 TemperatureHumidityPressure
High91 °F (Apr 9, 1:00 PM)100% (Apr 7, 6:00 AM)30.18 "Hg (Apr 7, 6:00 AM)
Low57 °F (Apr 7, 6:00 AM)31% (Apr 7, 3:00 PM)29.86 "Hg (Apr 9, 3:00 PM)
Average75 °F72%30.02 "Hg
* Reported Apr 3 9:00 AM — Apr 18 9:00 AM, Pirassununga, Weather by CustomWeather, © 2014

Note: Actual official high and low records may vary slightly from our data, if they occured in-between our weather recording intervals... More about our weather records

Advertising

Historic Weather Conditions — Data for Previous 24 hours

 ConditionsComfort  
Time TempWeatherWind HumidityBarometerVisibility
9:00 AM
Apr 18
63 °FFog.3 mph100%30.04 "Hg1 mi
8:00 AM61 °FFog.3 mph100%30.04 "Hg0 mi
7:00 AM61 °FFog.No wind100%30.04 "Hg0 mi
6:00 AM59 °FFog.5 mph100%30.04 "Hg0 mi
11:00 PM
Apr 17
66 °FClear.5 mph88%30.04 "Hg10 mi
10:00 PM68 °FClear.2 mph88%30.04 "Hg10 mi
9:00 PM68 °FClear.3 mph88%30.04 "Hg10 mi
8:00 PM70 °FClear.5 mph83%30.01 "Hg10 mi
7:00 PM73 °FClear.5 mph78%29.98 "Hg10 mi
6:00 PM77 °FPassing clouds.7 mph69%29.98 "HgN/A
5:00 PM82 °FPassing clouds.9 mph55%29.95 "HgN/A
4:00 PM82 °FScattered clouds.7 mph55%29.95 "HgN/A
3:00 PM84 °FScattered clouds.7 mph55%29.98 "HgN/A
2:00 PM81 °FScattered clouds.5 mph62%30.01 "HgN/A
1:00 PM81 °FPartly sunny.3 mph66%30.04 "HgN/A
12:00 PM79 °FScattered clouds.2 mph70%30.04 "HgN/A
11:00 AM75 °FPassing clouds.6 mph78%30.07 "HgN/A
10:00 AM72 °FPartly sunny.6 mph83%30.09 "HgN/A
Weather by CustomWeather, © 2014

See weather overview